Simultaneous Nadir Overpasses (SNOs) Predictions

Prediction of SNOs near US between AQUA and NPP Satellite Orbit:

Table of predicted SNOs near US for the next 10.0 days since TLE Epoch: 7/16/2022
Index Date (AQUA) Time (AQUA) AQUA Lat,Lon Date (NPP) Time (NPP) NPP Lat,Lon Distance(km) Time Diff (sec)
1 07/16/2022 21:03:54 49.99,-121.06 07/16/2022 20:55:45 49.68,-122.97 141.47 489
2 07/22/2022 07:39:00 39.93, -82.99 07/22/2022 07:36:11 40.35, -85.25 197.86 169
3 07/22/2022 09:15:19 49.05,-104.43 07/22/2022 09:15:03 49.48,-107.12 201.14 16
4 07/24/2022 20:12:42 49.99,-108.22 07/24/2022 20:05:06 49.63,-110.29 153.69 456
